Regional Weather Roundup
Issued by NWS Glasgow, MT

Home | Current Version | Previous Version | Text Only | Print | Product List | Glossary On
Versions: 1 2 3 4 5 6 7 8 9 10 11 12 13 14 15 16 17 18 19 20 21 22 23 24 25 26 27 28 29 30 31 32 33 34 35 36 37 38 39 40 41 42 43 44 45 46 47 48 49 50
000
ASUS45 KGGW 280715
RWRGGW
HOURLY WEATHER ROUNDUP FOR NORTHEAST MONTANA
NATIONAL WEATHER SERVICE GLASGOW MONTANA
100 AM MDT THU AUG 28 2014

NOTE: "FAIR" INDICATES FEW OR NO CLOUDS BELOW 12,000 FEET WITH NO
SIGNIFICANT WEATHER AND/OR OBSTRUCTIONS TO VISISBILITY.

NORTHEAST MONTANA


CITY           SKY/WX    TMP DP  RH WIND       PRES   REMARKS
GLASGOW        CLEAR     60  52  74 E9        29.90F
PLENTYWOOD       N/A     62  54  74 SE5         N/A
WOLF POINT     CLEAR     58  51  78 CALM      29.90F
JORDAN           N/A     58  55  90 W7        29.94F
WINNETT          N/A     54  52  93 SW2         N/A
SIDNEY         CLEAR     61  57  88 S3        29.95S
GLENDIVE       CLEAR     64  61  88 S10       29.96F
MALTA            N/A     63  55  75 W3          N/A
SCOBEY           N/A     54  43  66 CALM      29.91S

FORT PECK REPORTS


CITY           SKY/WX    TMP DP  RH WIND       PRES   REMARKS
FORT PECK        N/A     68  56  65 SE6         N/A
THE PINES        N/A     69  51  52 SW3         N/A

SOUTHEAST MONTANA


CITY           SKY/WX    TMP DP  RH WIND       PRES   REMARKS
BILLINGS       CLEAR     70  49  47 SW14      30.03S
MILES CITY     CLEAR     64  57  78 S12       29.95F
BAKER          CLEAR     61  59  93 SE5       30.01F
LIVINGSTON     CLEAR     54  45  71 NW5       30.12S

CENTRAL MONTANA


CITY           SKY/WX    TMP DP  RH WIND       PRES   REMARKS
HAVRE          CLEAR     59  53  80 SW7       29.91S
LEWISTOWN      CLEAR     56  46  69 SE7       30.05S
GREAT FALLS    CLEAR     60  48  64 SW9       30.00S
CUT BANK       PTCLDY    61  46  57 W13       29.98F
HELENA         CLEAR     61  47  59 CALM      30.06S
BUTTE          CLEAR     50  45  83 SE6       30.20S
BOZEMAN        CLEAR     57  45  64 S9        30.12S

WESTERN MONTANA


CITY           SKY/WX    TMP DP  RH WIND       PRES   REMARKS
MISSOULA       CLEAR     62  46  55 CALM      30.06R
KALISPELL      NOT AVBL

NORTH DAKOTA


CITY           SKY/WX    TMP DP  RH WIND       PRES   REMARKS
WILLISTON      PTCLDY    66  56  70 S5        29.93F
DICKINSON      PTCLDY    60  58  92 S10       29.97F
MINOT          CLEAR     64  60  87 S7        29.94F
BISMARCK       MOCLDY    65  60  84 E5        30.00F

SOUTHERN SASKATCHEWAN


CITY           SKY/WX    TMP DP  RH WIND       PRES   REMARKS
REGINA         CLEAR     59  55  88 E6        29.84S
ESTEVAN        PTCLDY    66  57  72 SW10      29.89F
SWIFT CURRENT  CLEAR     59  50  72 S7        29.87F




USA.gov is the U.S. government's official web portal to all federal, state and local government web resources and services.